Regional Weather Roundup
Issued by NWS

Home | Current Version | Previous Version | Text Only | Print | Product List | Glossary Off
Versions: 1 2 3 4 5 6 7 8 9 10 11 12 13 14 15 16 17 18 19 20 21 22 23 24 25 26 27 28 29 30 31 32 33 34 35 36 37 38 39 40 41 42 43 44 45 46 47 48 49 50

000
ASUS43 KFSD 280102
RWRSD

WEATHER ROUNDUP FOR SOUTH DAKOTA
NATIONAL WEATHER SERVICE SIOUX FALLS SD
800 PM CDT WED MAY 27 2015

NOTE: "FAIR" INDICATES FEW OR NO CLOUDS BELOW 12,000 FEET WITH NO
SIGNIFICANT WEATHER AND/OR OBSTRUCTIONS TO VISIBILITY.


SDZ001>005-009-010-012>017-280200-
NORTHWEST AND NORTH CENTRAL SOUTH DAKOTA

CITY           SKY/WX    TMP DP  RH WIND       PRES   REMARKS
BUFFALO          N/A     58  56  93 NE8       29.87S
FAITH            N/A     63  56  78 SE18G24   29.91F
MOBRIDGE       CLOUDY    71  56  58 SE5       29.91S
$$

SDZ012>016-024>037-041>051-057-063-072>074-280200-
SOUTHWEST AND SOUTH CENTRAL SOUTH DAKOTA

CITY           SKY/WX    TMP DP  RH WIND       PRES   REMARKS
RAPID CTY ARPT MOSUNNY   69  59  70 S9        29.90S
PIERRE         LGT RAIN  72  52  49 SE10      29.90S
CUSTER         MOSUNNY   64  45  49 SW6       30.02R
ELLSWORTH AFB  MOSUNNY   72  57  60 S9        29.90S
PHILIP         LGT RAIN  65  59  81 SE13      29.92R
PINE RIDGE     CLOUDY    70  53  54 SW5       29.92S
WINNER         FAIR      75  50  41 SE13      29.95S
$$

SDZ004>011-016>023-039-040-280200-
NORTHEAST SOUTH DAKOTA

CITY           SKY/WX    TMP DP  RH WIND       PRES   REMARKS
ABERDEEN       CLOUDY    73  54  51 SE5       29.94R
WATERTOWN      PTCLDY    74  51  44 S7        29.97S
BROOKINGS      CLOUDY    79  50  36 SW7       29.99R
$$

SDZ017-020-022-023-036>040-048>070-280200-
SOUTHEAST SOUTH DAKOTA

CITY           SKY/WX    TMP DP  RH WIND       PRES   REMARKS
SIOUX FALLS    PTCLDY    76  52  43 SW6       29.99R
HURON            N/A    N/A N/A N/A MISG      29.95S
CHAMBERLAIN    PTSUNNY   73  52  48 S9        29.95S
MITCHELL       PTCLDY    79  51  37 S7        29.97R
YANKTON        PTCLDY    79  46  31 CALM      29.97R
$$

ABBREVIATIONS USED IN REMARKS
   TC - TEMPERATURE IN CELSIUS
  WCI - WIND CHILL INDEX
   HX - HEAT INDEX
  VSB - VISIBILITY




USA.gov is the U.S. government's official web portal to all federal, state and local government web resources and services.